WetterOnline ( https://www.wetteronline.de )

Wetter aktuell Waren (Müritz)

Aktuelles Wetter: Waren (71m)

6-stündlich | Neueste Meldungen
Ortszeit Temperatur Wetter
Fr, 27.11. 7:00 2.4° C Nebel
Fr, 27.11. 1:00 4.8° C Nebel
Do, 26.11. 19:00 6.1° C bedeckt
Do, 26.11. 13:00 7.0° C bedeckt
Do, 26.11. 7:00 2.6° C bedeckt
Do, 26.11. 1:00 2.5° C bedeckt
Mi, 25.11. 19:00 1.8° C Nebel
Mi, 25.11. 13:00 0.6° C bedeckt
Ortszeit Temperatur Wetter
Fr, 27.11. 10:00 2.9° C bedeckt
Fr, 27.11. 9:50 2.9° C bedeckt
Fr, 27.11. 9:40 2.8° C Nebel
Fr, 27.11. 9:30 2.4° C Nebel
Fr, 27.11. 9:20 2.4° C Nebel
Fr, 27.11. 9:10 2.3° C Nebel
Fr, 27.11. 9:00 2.3° C Nebel
Fr, 27.11. 8:30 2.3° C Nebel
Fr, 27.11. 8:00 2.5° C Nebel
Fr, 27.11. 7:30 2.4° C Nebel
Fr, 27.11. 7:00 2.4° C Nebel
Ortszeit Relative Feuchte Sichtweite
Fr, 27.11. 7:00 100% 100 m
Fr, 27.11. 1:00 99% 0.3 km
Do, 26.11. 19:00 97% 6 km
Do, 26.11. 13:00 98% 2.1 km
Do, 26.11. 7:00 96% 4.2 km
Do, 26.11. 1:00 99% 1.3 km
Mi, 25.11. 19:00 99% 0.3 km
Mi, 25.11. 13:00 100% 1.8 km
Ortszeit Relative Feuchte Sichtweite
Fr, 27.11. 10:00 100% 1.6 km
Fr, 27.11. 9:50 100% -
Fr, 27.11. 9:40 99% -
Fr, 27.11. 9:30 100% 0.4 km
Fr, 27.11. 9:20 100% -
Fr, 27.11. 9:10 100% -
Fr, 27.11. 9:00 100% 100 m
Fr, 27.11. 8:30 100% 100 m
Fr, 27.11. 8:00 100% 100 m
Fr, 27.11. 7:30 100% 100 m
Fr, 27.11. 7:00 100% 100 m
Ortszeit Niederschlagsmenge Niederschlagsart
Fr, 27.11. 7:00 0.0 l/m2 in 12 Std. -
Fr, 27.11. 1:00 0.0 l/m2 in 6 Std. -
Do, 26.11. 19:00 0.1 l/m2 in 12 Std. -
Do, 26.11. 13:00 0.1 l/m2 in 6 Std. Regen
Do, 26.11. 7:00 0.0 l/m2 in 12 Std. -
Do, 26.11. 1:00 0.0 l/m2 in 6 Std. -
Mi, 25.11. 19:00 0.0 l/m2 in 12 Std. -
Mi, 25.11. 13:00 0.0 l/m2 in 6 Std. -
Ortszeit Niederschlagsmenge Niederschlagsart
Fr, 27.11. 10:00 0.0 l/m2 in 1 Std. -
Fr, 27.11. 9:50 keine Meldung -
Fr, 27.11. 9:40 keine Meldung -
Fr, 27.11. 9:30 0.0 l/m2 in 1 Std. -
Fr, 27.11. 9:20 keine Meldung -
Fr, 27.11. 9:10 keine Meldung -
Fr, 27.11. 9:00 0.1 l/m2 in 1 Std. -
Fr, 27.11. 8:30 0.1 l/m2 in 1 Std. -
Fr, 27.11. 8:00 0.0 l/m2 in 1 Std. -
Fr, 27.11. 7:30 0.0 l/m2 in 1 Std. -
Fr, 27.11. 7:00 0.0 l/m2 in 1 Std. -
Ortszeit Stärke Spitze Richtung
km/h Bft. km/h Grad Sektor
Fr, 27.11. 7:00 4 1 14 240° SW
Fr, 27.11. 1:00 6 1 15 270° W
Do, 26.11. 19:00 7 2 25 260° W
Do, 26.11. 13:00 11 2 22 230° SW
Do, 26.11. 7:00 13 3 24 210° SW
Do, 26.11. 1:00 13 3 31 210° SW
Mi, 25.11. 19:00 20 4 33 200° S
Mi, 25.11. 13:00 18 3 29 210° SW
Ortszeit Stärke Spitze Richtung
km/h Bft. km/h Grad Sektor
Fr, 27.11. 10:00 4 1 7 230° SW
Fr, 27.11. 9:50 4 1 - 230° SW
Fr, 27.11. 9:40 4 1 - 230° SW
Fr, 27.11. 9:30 4 1 7 230° SW
Fr, 27.11. 9:20 4 1 - 230° SW
Fr, 27.11. 9:10 6 1 - 220° SW
Fr, 27.11. 9:00 4 1 7 230° SW
Fr, 27.11. 8:30 4 1 4 280° W
Fr, 27.11. 8:00 0 0 7 - -
Fr, 27.11. 7:30 4 1 7 220° SW
Fr, 27.11. 7:00 4 1 7 240° SW
Ortszeit Untergrenze Bedeckung Gattung
total tief tief mittel hoch
Fr, 27.11. 7:00 <30 m 8/8 0/8 - - -
Fr, 27.11. 1:00 30 m 8/8 8/8 - - -
Do, 26.11. 19:00 4500 m 8/8 8/8 - - -
Do, 26.11. 13:00 60 m 8/8 8/8 - - -
Do, 26.11. 7:00 90 m 8/8 8/8 - - -
Do, 26.11. 1:00 30 m 8/8 8/8 - - -
Mi, 25.11. 19:00 30 m 8/8 8/8 - - -
Mi, 25.11. 13:00 30 m 8/8 8/8 - - -
Ortszeit Bedeckungsgrad in Achtel und Wolkenuntergrenze
Fr, 27.11. 10:00 8(30m)
Fr, 27.11. 9:50 8(30m)
Fr, 27.11. 9:40 8(30m)
Fr, 27.11. 9:30 8(<30m)
Fr, 27.11. 9:20 8(<30m)
Fr, 27.11. 9:10 8(<30m)
Fr, 27.11. 9:00 8(<30m)
Fr, 27.11. 8:30 8(<30m)
Fr, 27.11. 8:00 8(<30m)
Fr, 27.11. 7:30 8(<30m)
Fr, 27.11. 7:00 8(<30m)
Ortszeit Luftdruck NN (hPa) Tendenz (hPa in 3 Std.)
Fr, 27.11. 7:00 1021 + 0,5
Fr, 27.11. 1:00 1021 + 0,4
Do, 26.11. 19:00 1020 + 1,2
Do, 26.11. 13:00 1018 - 0,4
Do, 26.11. 7:00 1018 - 0,4
Do, 26.11. 1:00 1019 0,0
Mi, 25.11. 19:00 1019 + 0,3
Mi, 25.11. 13:00 1019 - 0,4
Ortszeit Luftdruck NN (hPa) Tendenz (hPa in 3 Std.)
Fr, 27.11. 10:00 1023 + 1,2
Fr, 27.11. 9:50 1023 keine Meldung
Fr, 27.11. 9:40 1023 keine Meldung
Fr, 27.11. 9:30 1023 + 1,2
Fr, 27.11. 9:20 1023 keine Meldung
Fr, 27.11. 9:10 1022 keine Meldung
Fr, 27.11. 9:00 1022 + 1,2
Fr, 27.11. 8:30 1022 + 0,9
Fr, 27.11. 8:00 1022 + 0,9
Fr, 27.11. 7:30 1022 + 0,8
Fr, 27.11. 7:00 1021 + 0,5
Ortszeit Schneehöhe (cm)
Fr, 27.11. 7:00 0
Fr, 27.11. 1:00 0
Do, 26.11. 19:00 0
Do, 26.11. 13:00 0
Do, 26.11. 7:00 0
Do, 26.11. 1:00 0
Mi, 25.11. 19:00 0
Mi, 25.11. 13:00 0
Ortszeit Schneehöhe (cm)
Fr, 27.11. 10:00 0
Fr, 27.11. 9:50 0
Fr, 27.11. 9:40 0
Fr, 27.11. 9:30 0
Fr, 27.11. 9:20 0
Fr, 27.11. 9:10 0
Fr, 27.11. 9:00 0
Fr, 27.11. 8:30 0
Fr, 27.11. 8:00 0
Fr, 27.11. 7:30 0
Fr, 27.11. 7:00 0
Link zu dieser Seite / Seite empfehlen

Das Wetter in ...